TimeEST,TemperatureF,Dew PointF,Humidity,Sea Level PressureIn,VisibilityMPH,Wind Direction,Wind SpeedMPH,Gust SpeedMPH,PrecipitationIn,Events,Conditions,WindDirDegrees,DateUTC
12:56 AM,30.0,28.9,96,29.65,0.8,North,12.7,-,0.02,Snow,Light Snow,350,2013-03-06 05:56:00
1:07 AM,30.2,28.4,93,29.63,0.8,North,12.7,-,0.00,Snow,Light Snow,350,2013-03-06 06:07:00
1:56 AM,30.0,28.0,92,29.68,0.8,North,16.1,24.2,0.01,Snow,Light Snow,350,2013-03-06 06:56:00
2:56 AM,28.9,28.0,96,29.70,0.8,NNW,17.3,24.2,0.01,Snow,Light Snow,340,2013-03-06 07:56:00
3:56 AM,28.0,27.0,96,29.73,0.5,North,18.4,-,0.02,Fog-Snow,Snow,350,2013-03-06 08:56:00
4:56 AM,28.0,26.1,92,29.78,0.8,NNW,17.3,26.5,0.00,Snow,Light Snow,340,2013-03-06 09:56:00
5:19 AM,28.4,26.6,93,29.77,1.0,North,17.3,28.8,0.00,Snow,Light Snow,350,2013-03-06 10:19:00
5:39 AM,28.4,26.6,93,29.79,4.0,North,17.3,-,0.00,,Overcast,350,2013-03-06 10:39:00
5:56 AM,28.9,26.1,89,29.82,4.0,NNW,19.6,-,0.00,,Overcast,340,2013-03-06 10:56:00
6:56 AM,28.0,25.0,88,29.88,6.0,North,18.4,-,N/A,,Overcast,350,2013-03-06 11:56:00
7:10 AM,28.4,24.8,86,29.86,6.0,NNW,18.4,-,N/A,,Overcast,340,2013-03-06 12:10:00
7:56 AM,28.0,25.0,88,29.94,5.0,North,16.1,-,N/A,,Overcast,350,2013-03-06 12:56:00
8:56 AM,28.4,24.8,86,29.97,5.0,North,16.1,-,N/A,,Overcast,350,2013-03-06 13:56:00
9:56 AM,28.0,25.0,88,30.04,5.0,NNW,17.3,-,N/A,,Overcast,340,2013-03-06 14:56:00
10:56 AM,28.9,26.1,89,30.08,6.0,NNW,16.1,-,N/A,,Overcast,340,2013-03-06 15:56:00
11:56 AM,30.0,26.1,85,30.10,6.0,NW,19.6,-,N/A,,Overcast,320,2013-03-06 16:56:00
12:56 PM,30.9,26.1,82,30.13,6.0,NNW,16.1,-,N/A,,Haze,330,2013-03-06 17:56:00
1:56 PM,32.0,27.0,82,30.14,5.0,NNW,12.7,-,N/A,,Haze,330,2013-03-06 18:56:00
2:06 PM,32.0,26.6,80,30.11,6.0,NNW,15.0,-,N/A,,Haze,340,2013-03-06 19:06:00
2:56 PM,33.1,27.0,78,30.15,5.0,NNW,12.7,-,N/A,,Haze,330,2013-03-06 19:56:00
3:56 PM,32.0,27.0,82,30.18,5.0,NNW,13.8,-,N/A,,Haze,330,2013-03-06 20:56:00
4:56 PM,32.0,26.1,79,30.19,5.0,NNW,10.4,-,N/A,,Haze,330,2013-03-06 21:56:00
5:56 PM,32.0,26.1,79,30.22,5.0,NW,9.2,-,N/A,,Haze,310,2013-03-06 22:56:00
6:56 PM,32.0,26.1,79,30.24,7.0,WNW,10.4,-,N/A,,Overcast,300,2013-03-06 23:56:00
7:56 PM,30.9,26.1,82,30.25,7.0,NW,6.9,-,N/A,,Overcast,310,2013-03-07 00:56:00
8:56 PM,30.9,26.1,82,30.26,7.0,WNW,4.6,-,N/A,,Overcast,300,2013-03-07 01:56:00
9:56 PM,30.9,27.0,85,30.26,7.0,WNW,5.8,-,N/A,,Overcast,300,2013-03-07 02:56:00
10:56 PM,30.9,27.0,85,30.26,7.0,WNW,5.8,-,N/A,,Overcast,300,2013-03-07 03:56:00
11:11 PM,30.2,26.6,86,30.23,7.0,WNW,4.6,-,N/A,,Overcast,300,2013-03-07 04:11:00
11:56 PM,30.9,27.0,85,30.26,7.0,WNW,5.8,-,N/A,,Overcast,290,2013-03-07 04:56:00